SL-8 R/B

Satellite information

Favourite Embed

Satellite Type and Status

ROCKET BODYIN ORBIT

Key statistics

Satellite SL-8 R/B at a glance.

Uptime

11345

Days in orbit

Revolutions

≈ 14.2

Per day

Orbit

LEO

Low Earth Orbit

Inclination

83.0

Latest

Satellite identification and parameters

Extended collection of information and parameters for SL-8 R/B.

Object identification

Identified? True

Debris? False

Object name: SL-8 R/B

International designator: 1994-061B

Object number (NORAD): 23279

Object ID (CCSDS): 23279

Country: COMMONWEALTH OF INDEPENDENT STATES (CIS)

Current information (Y/N): Y

RCS size: LARGE

Orbital parameters

Period: 101.102 minutes

Inclination: 82.9592 deg

SMA: 7188.991 km

Apoapsis: 1253.486 km

Periapsis: 368.226 km

RAAN: 137.2563 deg

Eccentricy: 0.06157053

Argument of periapsis: 36.489 deg

Mean anomaly: 327.6647 deg

Mean motion: 14.24297976 rev/day

Mean motion (dot): 0.00014237 rev/day2

B* drag term: 0.00073957559 1/REarth

Two-line elements (TLE)

Creation date: Oct. 18, 2025, 2:17 a.m.

Reference frame: TEME

Reference center: EARTH

Epoch: Oct. 17, 2025, 10:30 p.m. UTC

TLE line 0: 0 SL-8 R/B

TLE line 1: 1 23279U 94061B 25290.93777748 .00014237 00000-0 73958-3 0 9995

TLE line 2: 2 23279 82.9592 137.2563 0615705 36.4890 327.6647 14.24297976551053

Live tracking on map

Real-time ground track for satellite SL-8 R/B.

In-orbit conjunctions

A list of the most updated potential collisions computed for object SL-8 R/B.

Target Orbit TCA Probability of collision Miss distance Type
FENGYUN 1C DEB SSO 2025-09-04 05:45:08 0.0004599563 447.0 (m) DEBRIS
NOAA 16 DEB SSO 2025-09-01 20:26:29 0.0001666412 474.0 (m) DEBRIS
OPS 4682 DEB SSO 2025-08-27 13:31:44 0.001095122 124.0 (m) DEBRIS
OPS 4682 DEB SSO 2025-08-25 21:03:22 0.0002397476 466.0 (m) DEBRIS
SUNSAT SSO 2025-04-29 15:52:59 0.0001949174 692.0 (m) PAYLOAD

Associated space launch

Radar calibration satellite

SL-8 R/B was lifted into orbit during the mission ‘Kosmos-3M | Taifun-1 24’, on board a Kosmos-3M space rocket.

The launch took place on Sept. 27, 1994, 2 p.m. from 132/1 (132L).

For more information about the launch, click the button.

Launch to space Kosmos-3M | Taifun-1 24
Kosmos-3M | Taifun-1 24

Agency: N/A

Status: Launch Successful

Launch date: Sept. 27, 1994, 2 p.m. UTC

Rocket: Kosmos-3M

Launch pad: 132/1 (132L)

Location: Plesetsk Cosmodrome, Russian Federation

...

Latest news about this satellite

There are no fresh news available about this satellite. Check back as we update our databases every day.


Newsletter sign-up

Weekly statistics, charts and insights to help you stay on top of the space industry.